�������l�o���
Date,Time,MP-1(��Sv/h),MP-2(��Sv/h),MP-3(��Sv/h),MP-4(��Sv/h),MP-5(��Sv/h),MP-6(��Sv/h),MP-7(��Sv/h),MP-8(��Sv/h),����,����(m/s),���J
2024/01/08,00:00,0.503,0.757,0.479,0.966,0.682,0.316,0.555,0.522,�k��,6.5,��
2024/01/08,00:10,0.504,0.754,0.477,0.964,0.681,0.314,0.555,0.521,�k��,6.7,��
2024/01/08,00:20,0.502,0.755,0.478,0.961,0.681,0.311,0.553,0.521,�k��,6.8,��
2024/01/08,00:30,0.501,0.754,0.476,0.963,0.681,0.313,0.552,0.520,�k��,6.9,��
2024/01/08,00:40,0.502,0.753,0.477,0.962,0.679,0.311,0.555,0.522,�k��,7.9,��
2024/01/08,00:50,0.501,0.755,0.477,0.962,0.679,0.310,0.554,0.520,�k��,8.7,��
2024/01/08,01:00,0.501,0.752,0.476,0.963,0.677,0.309,0.554,0.520,�k��,7.7,��
2024/01/08,01:10,0.499,0.754,0.475,0.963,0.678,0.309,0.553,0.519,�k��,8.8,��
2024/01/08,01:20,0.500,0.753,0.473,0.963,0.677,0.309,0.554,0.520,�k��,9.1,��
2024/01/08,01:30,0.500,0.752,0.474,0.961,0.677,0.309,0.553,0.520,�k��,8.3,��
2024/01/08,01:40,0.499,0.751,0.473,0.961,0.676,0.309,0.554,0.519,�k��,7.8,��
2024/01/08,01:50,0.500,0.753,0.472,0.962,0.677,0.309,0.553,0.521,�k��,6.8,��
2024/01/08,02:00,0.499,0.750,0.472,0.962,0.676,0.308,0.553,0.519,�k��,6.0,��
2024/01/08,02:10,0.497,0.752,0.472,0.963,0.676,0.309,0.553,0.521,�k��,6.1,��
2024/01/08,02:20,0.498,0.751,0.473,0.962,0.677,0.309,0.554,0.520,�k��,6.9,��
2024/01/08,02:30,0.498,0.754,0.474,0.961,0.678,0.309,0.554,0.520,�k��,8.2,��
2024/01/08,02:40,0.498,0.750,0.471,0.963,0.676,0.309,0.553,0.521,�k��,8.7,��
2024/01/08,02:50,0.498,0.751,0.474,0.961,0.675,0.307,0.554,0.519,�k��,8.8,��
2024/01/08,03:00,0.499,0.751,0.472,0.961,0.675,0.310,0.555,0.520,�k��,7.5,��
2024/01/08,03:10,0.498,0.750,0.473,0.961,0.677,0.310,0.555,0.521,�k��,7.5,��
2024/01/08,03:20,0.497,0.751,0.474,0.961,0.676,0.310,0.554,0.519,�k��,7.9,��
2024/01/08,03:30,0.499,0.750,0.473,0.962,0.677,0.309,0.555,0.520,�k��,7.2,��
2024/01/08,03:40,0.498,0.750,0.474,0.961,0.676,0.309,0.555,0.520,�k��,8.0,��
2024/01/08,03:50,0.498,0.751,0.473,0.959,0.679,0.307,0.555,0.520,�k��,8.6,��
2024/01/08,04:00,0.499,0.751,0.472,0.963,0.677,0.309,0.555,0.521,�k��,7.7,��
2024/01/08,04:10,0.497,0.750,0.473,0.962,0.677,0.309,0.555,0.521,�k��,6.1,��
2024/01/08,04:20,0.497,0.750,0.472,0.962,0.675,0.308,0.555,0.523,�k��,6.4,��
2024/01/08,04:30,0.497,0.750,0.472,0.960,0.676,0.308,0.554,0.523,�k��,5.9,��
2024/01/08,04:40,0.498,0.751,0.472,0.961,0.676,0.308,0.555,0.520,�k��,7.8,��
2024/01/08,04:50,0.498,0.753,0.472,0.962,0.677,0.308,0.555,0.521,�k��,6.7,��
2024/01/08,05:00,0.498,0.753,0.473,0.963,0.676,0.309,0.554,0.521,���k��,7.4,��
2024/01/08,05:10,0.497,0.753,0.473,0.962,0.676,0.310,0.554,0.521,�k��,7.9,��
2024/01/08,05:20,0.498,0.750,0.473,0.962,0.677,0.309,0.554,0.522,���k��,8.2,��
2024/01/08,05:30,0.498,0.749,0.473,0.963,0.677,0.310,0.554,0.521,�k��,7.7,��
2024/01/08,05:40,0.498,0.752,0.471,0.963,0.676,0.310,0.555,0.521,�k��,9.9,��
2024/01/08,05:50,0.499,0.754,0.473,0.962,0.675,0.310,0.555,0.521,�k��,8.9,��
2024/01/08,06:00,0.498,0.751,0.473,0.961,0.675,0.310,0.555,0.520,���k��,7.6,��
2024/01/08,06:10,0.497,0.751,0.472,0.960,0.676,0.309,0.555,0.520,���k��,11.3,��
2024/01/08,06:20,0.498,0.752,0.472,0.961,0.673,0.309,0.556,0.522,���k��,10.5,��
2024/01/08,06:30,0.499,0.750,0.473,0.959,0.674,0.308,0.554,0.521,���k��,10.2,��
2024/01/08,06:40,0.499,0.751,0.472,0.962,0.675,0.308,0.554,0.521,���k��,8.6,��
2024/01/08,06:50,0.499,0.751,0.470,0.964,0.675,0.308,0.553,0.522,���k��,8.7,��
2024/01/08,07:00,0.499,0.751,0.472,0.963,0.676,0.308,0.553,0.522,��,6.4,��
2024/01/08,07:10,0.499,0.752,0.472,0.962,0.675,0.310,0.554,0.522,��,7.3,��
2024/01/08,07:20,0.498,0.752,0.473,0.962,0.675,0.309,0.555,0.521,��,7.4,��
2024/01/08,07:30,0.499,0.750,0.476,0.962,0.676,0.308,0.557,0.521,��,7.7,��
2024/01/08,07:40,0.498,0.753,0.473,0.961,0.678,0.309,0.555,0.520,��,7.3,��
2024/01/08,07:50,0.498,0.752,0.473,0.962,0.675,0.308,0.555,0.521,��,5.5,��
2024/01/08,08:00,0.498,0.753,0.472,0.963,0.674,0.309,0.555,0.522,���k��,5.6,��
2024/01/08,08:10,0.500,0.752,0.473,0.962,0.673,0.308,0.555,0.523,���k��,5.4,��
2024/01/08,08:20,0.498,0.753,0.474,0.963,0.673,0.308,0.556,0.522,���k��,5.8,��
2024/01/08,08:30,0.500,0.754,0.474,0.962,0.674,0.308,0.556,0.522,���k��,4.8,��
2024/01/08,08:40,0.498,0.752,0.473,0.961,0.673,0.309,0.557,0.522,���k��,4.7,��
2024/01/08,08:50,0.499,0.754,0.474,0.962,0.674,0.308,0.555,0.523,���k��,5.4,��
2024/01/08,09:00,0.499,0.752,0.474,0.961,0.674,0.309,0.557,0.522,���k��,4.6,��
2024/01/08,09:10,0.500,0.754,0.475,0.963,0.674,0.310,0.556,0.522,���k��,4.5,��
2024/01/08,09:20,0.501,0.755,0.474,0.960,0.674,0.309,0.555,0.522,���k��,3.9,��
2024/01/08,09:30,0.501,0.755,0.472,0.963,0.675,0.310,0.556,0.523,���k��,3.8,��
2024/01/08,09:40,0.500,0.754,0.474,0.962,0.675,0.311,0.556,0.522,�k��,4.3,��
2024/01/08,09:50,0.501,0.755,0.474,0.964,0.675,0.310,0.556,0.521,�k��,7.0,��
2024/01/08,10:00,0.499,0.755,0.474,0.965,0.677,0.308,0.556,0.521,�k��,5.8,��
2024/01/08,10:10,0.500,0.755,0.476,0.965,0.678,0.310,0.555,0.520,�k��,6.2,��
2024/01/08,10:20,0.502,0.757,0.474,0.963,0.677,0.310,0.555,0.522,�k��,6.6,��
2024/01/08,10:30,0.501,0.756,0.477,0.965,0.679,0.311,0.556,0.523,�k��,7.3,��
2024/01/08,10:40,0.502,0.757,0.476,0.963,0.679,0.310,0.554,0.522,�k�k��,6.6,��
2024/01/08,10:50,0.503,0.757,0.477,0.962,0.679,0.310,0.556,0.523,�k��,6.0,��
2024/01/08,11:00,0.505,0.758,0.475,0.965,0.680,0.309,0.556,0.523,�k��,5.9,��
2024/01/08,11:10,0.502,0.757,0.476,0.965,0.682,0.310,0.556,0.522,�k��,6.6,��
2024/01/08,11:20,0.502,0.759,0.476,0.965,0.682,0.310,0.556,0.522,�k�k��,5.7,��
2024/01/08,11:30,0.502,0.758,0.478,0.966,0.682,0.310,0.557,0.522,�k�k��,5.4,��
2024/01/08,11:40,0.503,0.759,0.478,0.967,0.681,0.310,0.558,0.524,�k��,6.2,��
2024/01/08,11:50,0.504,0.759,0.478,0.965,0.684,0.310,0.558,0.525,�k��,6.5,��
2024/01/08,12:00,0.504,0.760,0.477,0.965,0.685,0.312,0.558,0.523,�k��,7.3,��
2024/01/08,12:10,0.505,0.761,0.479,0.964,0.684,0.311,0.559,0.523,�k�k��,6.7,��
2024/01/08,12:20,0.506,0.762,0.479,0.965,0.685,0.309,0.557,0.524,�k��,7.3,��
2024/01/08,12:30,0.506,0.760,0.479,0.966,0.686,0.310,0.559,0.523,�k��,6.0,��
2024/01/08,12:40,0.506,0.762,0.481,0.965,0.682,0.311,0.560,0.524,�k��,5.8,��
2024/01/08,12:50,0.504,0.761,0.480,0.965,0.686,0.310,0.560,0.525,�k��,6.0,��
2024/01/08,13:00,0.507,0.764,0.480,0.966,0.686,0.312,0.559,0.523,�k��,6.1,��
2024/01/08,13:10,0.507,0.763,0.480,0.967,0.685,0.311,0.557,0.524,�k�k��,5.3,��
2024/01/08,13:20,0.506,0.762,0.480,0.969,0.687,0.312,0.560,0.523,�k��,5.9,��
2024/01/08,13:30,0.506,0.762,0.479,0.967,0.687,0.311,0.559,0.523,�k��,6.6,��
2024/01/08,13:40,0.506,0.765,0.478,0.970,0.687,0.311,0.559,0.523,�k��,6.3,��
2024/01/08,13:50,0.508,0.765,0.480,0.971,0.687,0.311,0.560,0.523,�k��,4.8,��
2024/01/08,14:00,0.507,0.765,0.481,0.967,0.687,0.311,0.558,0.524,�k��,5.8,��
2024/01/08,14:10,0.508,0.767,0.480,0.968,0.687,0.310,0.561,0.523,�k��,4.5,��
2024/01/08,14:20,0.507,0.764,0.481,0.968,0.688,0.311,0.560,0.523,�k��,5.6,��
2024/01/08,14:30,0.507,0.766,0.481,0.966,0.690,0.310,0.560,0.523,�k��,6.8,��
2024/01/08,14:40,0.508,0.766,0.481,0.969,0.687,0.311,0.559,0.524,�k��,7.0,��
2024/01/08,14:50,0.507,0.763,0.481,0.970,0.689,0.309,0.558,0.525,�k��,7.2,��
2024/01/08,15:00,0.505,0.765,0.481,0.967,0.689,0.311,0.558,0.523,�k��,6.9,��
2024/01/08,15:10,0.509,0.764,0.482,0.969,0.688,0.311,0.559,0.524,�k��,6.9,��
2024/01/08,15:20,0.508,0.765,0.480,0.969,0.690,0.312,0.561,0.523,�k��,6.7,��
2024/01/08,15:30,0.507,0.765,0.481,0.970,0.689,0.311,0.559,0.523,�k��,5.3,��
2024/01/08,15:40,0.508,0.764,0.481,0.968,0.691,0.313,0.559,0.523,�k��,5.8,��
2024/01/08,15:50,0.507,0.767,0.481,0.968,0.689,0.312,0.559,0.524,�k��,6.6,��
2024/01/08,16:00,0.508,0.765,0.482,0.970,0.689,0.310,0.559,0.524,�k�k��,4.9,��
2024/01/08,16:10,0.507,0.767,0.481,0.970,0.688,0.312,0.559,0.522,�k��,4.3,��
2024/01/08,16:20,0.507,0.764,0.480,0.968,0.688,0.310,0.558,0.522,�k�k��,4.0,��
2024/01/08,16:30,0.507,0.765,0.482,0.971,0.689,0.312,0.559,0.522,�k�k��,4.5,��
2024/01/08,16:40,0.507,0.764,0.483,0.970,0.690,0.310,0.558,0.523,�k�k��,4.6,��
2024/01/08,16:50,0.506,0.767,0.481,0.971,0.688,0.311,0.558,0.522,�k��,4.2,��
2024/01/08,17:00,0.507,0.766,0.480,0.968,0.689,0.311,0.557,0.523,�k��,3.9,��
2024/01/08,17:10,0.506,0.766,0.482,0.967,0.689,0.309,0.558,0.522,���k��,2.6,��
2024/01/08,17:20,0.506,0.766,0.481,0.969,0.689,0.312,0.558,0.522,��,1.9,��
2024/01/08,17:30,0.506,0.765,0.480,0.970,0.688,0.310,0.559,0.522,��,1.5,��
2024/01/08,17:40,0.506,0.765,0.482,0.968,0.690,0.311,0.556,0.523,��,1.8,��
2024/01/08,17:50,0.507,0.764,0.479,0.970,0.688,0.311,0.558,0.524,���k��,1.8,��
2024/01/08,18:00,0.506,0.766,0.481,0.969,0.690,0.310,0.558,0.522,�k�k��,1.2,��
2024/01/08,18:10,0.505,0.765,0.479,0.969,0.688,0.309,0.557,0.523,�k��,0.9,��
2024/01/08,18:20,0.507,0.766,0.480,0.967,0.690,0.309,0.558,0.521,���쐼,1.1,��
2024/01/08,18:30,0.506,0.764,0.481,0.972,0.688,0.310,0.557,0.522,��쓌,0.8,��
2024/01/08,18:40,0.506,0.765,0.479,0.969,0.690,0.310,0.558,0.521,-,CALM,��
2024/01/08,18:50,0.505,0.765,0.479,0.970,0.688,0.309,0.559,0.523,�쐼,0.6,��
2024/01/08,19:00,0.506,0.765,0.481,0.969,0.687,0.310,0.556,0.523,-,CALM,��
2024/01/08,19:10,0.505,0.766,0.480,0.969,0.690,0.310,0.555,0.521,�쐼,0.6,��
2024/01/08,19:20,0.508,0.767,0.481,0.970,0.689,0.310,0.556,0.522,���쐼,1.1,��
2024/01/08,19:30,0.507,0.765,0.479,0.970,0.689,0.309,0.557,0.524,�k��,0.8,��
2024/01/08,19:40,0.505,0.766,0.479,0.972,0.687,0.310,0.556,0.522,�k��,1.1,��
2024/01/08,19:50,0.505,0.765,0.480,0.971,0.688,0.311,0.557,0.522,�k��,1.2,��
2024/01/08,20:00,0.506,0.766,0.479,0.968,0.688,0.310,0.555,0.522,�k��,2.5,��
2024/01/08,20:10,0.506,0.766,0.478,0.969,0.690,0.310,0.556,0.522,���k��,1.5,��
2024/01/08,20:20,0.505,0.765,0.480,0.970,0.688,0.310,0.558,0.521,���k��,1.2,��
2024/01/08,20:30,0.505,0.765,0.480,0.969,0.687,0.310,0.555,0.523,���k��,1.2,��
2024/01/08,20:40,0.505,0.763,0.479,0.970,0.688,0.310,0.556,0.521,���k��,1.1,��
2024/01/08,20:50,0.506,0.765,0.479,0.970,0.689,0.309,0.555,0.522,�쐼,1.4,��
2024/01/08,21:00,0.506,0.764,0.480,0.968,0.689,0.309,0.556,0.521,���쐼,2.3,��
2024/01/08,21:10,0.506,0.764,0.479,0.971,0.688,0.308,0.556,0.522,���쐼,2.5,��
2024/01/08,21:20,0.506,0.764,0.479,0.969,0.688,0.311,0.557,0.523,���쐼,2.0,��
2024/01/08,21:30,0.507,0.765,0.478,0.968,0.688,0.310,0.557,0.523,�쐼,1.8,��
2024/01/08,21:40,0.505,0.764,0.478,0.971,0.689,0.309,0.556,0.522,�쐼,2.6,��
2024/01/08,21:50,0.508,0.764,0.478,0.970,0.686,0.311,0.556,0.523,��쐼,3.3,��
2024/01/08,22:00,0.506,0.763,0.479,0.968,0.688,0.310,0.555,0.522,�쐼,3.0,��
2024/01/08,22:10,0.506,0.765,0.480,0.971,0.688,0.310,0.556,0.521,�쐼,2.9,��
2024/01/08,22:20,0.507,0.764,0.479,0.970,0.686,0.310,0.556,0.520,�쐼,3.8,��
2024/01/08,22:30,0.505,0.764,0.479,0.969,0.687,0.309,0.556,0.523,�쐼,3.3,��
2024/01/08,22:40,0.507,0.765,0.479,0.969,0.688,0.309,0.555,0.523,�쐼,3.6,��
2024/01/08,22:50,0.505,0.764,0.479,0.969,0.686,0.309,0.558,0.520,�쐼,3.4,��
2024/01/08,23:00,0.506,0.765,0.479,0.969,0.687,0.310,0.555,0.522,�쐼,2.8,��
2024/01/08,23:10,0.506,0.765,0.479,0.968,0.687,0.310,0.556,0.521,�쐼,2.3,��
2024/01/08,23:20,0.506,0.765,0.480,0.969,0.685,0.310,0.555,0.524,���쐼,2.3,��
2024/01/08,23:30,0.505,0.766,0.479,0.969,0.685,0.310,0.555,0.521,�쐼,2.9,��
2024/01/08,23:40,0.506,0.765,0.478,0.969,0.687,0.309,0.557,0.523,�쐼,3.8,��
2024/01/08,23:50,0.506,0.765,0.480,0.968,0.688,0.310,0.556,0.522,�쐼,4.0,��
